星链-3505 (STARLINK-3505 )

导读 | 豆包AI

STARLINK-3505是美国SpaceX星链(Starlink)项目的卫星,于2022年2月21日发射。星链计划旨在构建全球卫星互联网星座,为全球偏远地区等提供高速互联网接入服务。STARLINK-3505入轨后,与其他星链卫星组网,进一步扩充星链星座规模,提升星座的覆盖能力与服务稳定性。

Basic Information
目录编号:
51750
目录名称:
STARLINK-3505
国际标识:
2022-016AN
轨道中心:
EARTH
卫星名称:
星链-3505
卫星全名:
星链-3505 (STARLINK-3505 )
卫星状态:
在轨 (已飞行1482 天)
发射日期:
2022-02-21 UTC
国别 :
美国 (US)
星等 :
--
Orbit Information
数据来源 国际轨道数据 AOE轨道数据
星历时间 2026-03-14T22:29:12+0800
7小时前
查看轨道信息
2026-03-11T16:00:00+0800
3天前
查看轨道信息
半长轴 6917.853km 6917.881km
偏心率 0.0001307 0.0001609
轨道倾角 53.216° 53.217°
近地点辐角 104.484° 65.504°
升交点赤经 287.070° 301.750°
平近点角 255.630° 161.358°
近地点 538.811km 538.63km
远地点 540.621km 540.858km
周期 95.437分钟 95.438分钟
每日圈数 15.088492 15.0884
Detailed Information
固有亮度:
5
最大亮度:
2.5
卫星平台:
Starlink v1.5
覆盖范围:
全球
运营商:
太空探索技术公司
运营商所在国:
美国
制造商(研发单位):
太空探索技术公司
制造商所在国:
美国
使用方式:
暂无
Satellite Introduction
星链(Starlink)计划是由太空探索技术公司(SpaceX)提出的一个巨型低轨卫星互联网星座项目,计划在2019年至2024年间在太空搭建由约1.2万颗卫星组成的“星链”网络,其中1584颗将部署在地球上空550千米处的近地轨道,并从2020年开始工作。该卫星仍在工作。
2D Orbit Map
3D Orbit Map
Orbit Altitude Analysis Chart
Orbit Inclination Analysis Chart
Orbit Comprehensive Analysis Chart
View Comprehensive Chart